This demonstration page uses our WeatherBlox Daily Observations layout. Learn more.

Left ArrowRight Arrow

44.89941, -97.11507

Hourly Observations for March 1, 2017

Temp ( °F °C ) Dew Point ( °F °C ) Humidity (%) Winds ( mph kmh ) Pressure ( in mb ) Visibility ( mi km ) Precip ( " mm )
12:53 am 00:53 Cloudy 23 -5 21 -6.1 92 92 N 15 24 29.88 1012 9 14 0.00 0.00
1:53 am 01:53 Cloudy 22 -5.6 20 -6.7 92 92 N 9 15 29.89 1012 10 16 0.00 0.00
2:05 am 02:05 Cloudy 22 -5.6 20 -6.7 92 92 N 12 19 29.94 1014 10 16 0.00 0.00
2:53 am 02:53 Cloudy 22 -5.6 20 -6.7 92 92 NNW 10 17 29.89 1012 10 16 0.00 0.00
3:53 am 03:53 Cloudy 22 -5.6 20 -6.7 92 92 NNW 10 17 29.90 1012 10 16 0.00 0.00
4:35 am 04:35 Cloudy 22 -5.6 20 -6.7 92 92 NW 13 20 29.97 1015 10 16 0.00 0.00
4:53 am 04:53 Cloudy 22 -5.6 19 -7.2 89 89 NW 13 20 29.93 1014 10 16 0.00 0.00
5:10 am 05:10 Cloudy with Light Snow 22 -5.6 19 -7.2 89 89 NW 14 22 30.00 1016 6 10 0.00 0.03
5:53 am 05:53 Cloudy 20 -6.7 17 -8.3 89 89 NW 15 24 29.96 1015 10 16 0.00 0.03
6:53 am 06:53 Cloudy 19 -7.2 16 -8.9 88 88 NW 12 19 29.99 1016 10 16 0.00 0.00
7:53 am 07:53 Partly Cloudy 19 -7.2 16 -8.9 88 88 NW 12 19 30.00 1016 10 16 0.00 0.00
8:53 am 08:53 Sunny 22 -5.6 17 -8.3 82 82 NW 16 26 30.02 1017 10 16 0.00 0.00
9:53 am 09:53 Mostly Cloudy with Light Snow 25 -3.9 19 -7.2 78 78 NW 15 24 30.03 1017 8 13 0.00 0.03
10:53 am 10:53 Mostly Sunny 28 -2.2 20 -6.7 72 72 NW 15 24 30.05 1018 10 16 0.00 0.03
11:32 am 11:32 Mostly Cloudy 29 -1.7 19 -7.2 66 66 NW 22 35 30.09 1019 10 16 0.00 0.00
11:53 am 11:53 Mostly Cloudy 28 -2.2 19 -7.2 69 69 NNW 17 28 30.07 1018 10 16 0.00 0.00
12:02 pm 12:02 Mostly Cloudy 27 -2.8 18 -7.8 69 69 NNW 22 35 30.09 1019 10 16 0.00 0.00
12:11 pm 12:11 Cloudy 29 -1.7 19 -7.2 66 66 NNW 20 31 30.09 1019 10 16 0.00 0.00
12:19 pm 12:19 Cloudy 29 -1.7 19 -7.2 66 66 NNW 17 28 30.12 1020 10 16 0.00 0.00
12:48 pm 12:48 Mostly Cloudy 30 -1 18 -8 59 59 NW 18 30 30.09 1019 10 16 0.00 0.00
12:53 pm 12:53 Mostly Cloudy 29 -1.7 18 -7.8 63 63 NW 20 31 30.09 1019 10 16 0.00 0.00
1:53 pm 13:53 Cloudy 27 -2.8 17 -8.3 66 66 NW 18 30 30.11 1020 10 16 0.00 0.00
2:53 pm 14:53 Cloudy 27 -2.8 16 -8.9 63 63 NW 21 33 30.13 1020 10 16 0.00 0.00
3:53 pm 15:53 Cloudy 28 -2.2 16 -8.9 60 60 NW 20 31 30.15 1021 10 16 0.00 0.00
4:53 pm 16:53 Mostly Cloudy 28 -2.2 16 -8.9 60 60 NW 18 30 30.16 1021 10 16 0.00 0.00
5:21 pm 17:21 Partly Cloudy 27 -2.8 15 -9.4 61 61 NW 17 28 30.18 1022 10 16 0.00 0.00
5:53 pm 17:53 Sunny 25 -3.9 15 -9.4 66 66 NW 14 22 30.18 1022 10 16 0.00 0.00
6:53 pm 18:53 Clear 23 -5 14 -10 68 68 NW 15 24 30.22 1023 10 16 0.00 0.00
7:53 pm 19:53 Clear 20 -6.7 14 -10 78 78 NNW 9 15 30.23 1024 10 16 0.00 0.00
8:53 pm 20:53 Clear 16 -8.9 11 -11.7 80 80 NNW 3 6 30.25 1024 10 16 0.00 0.00
9:53 pm 21:53 Clear 15 -9.4 11 -11.7 84 84 N 7 11 30.26 1025 10 16 0.00 0.00
10:53 pm 22:53 Clear 11 -11.7 8 -13.3 88 88 N 5 7 30.27 1025 10 16 0.00 0.00
11:53 pm 23:53 Clear 13 -10.6 10 -12.2 88 88 NW 5 7 30.28 1025 10 16 0.00 0.00

Powered by AerisWeather